PBO Station Position Time Series. Reference Frame : NAM14
Format Version,1.1.0
4-character ID,CABL
Station name,CABL_PNGA_OR1997
Begin Date, 1997-08-18
End Date, 2019-10-07
Release Date, 2019-10-08
Reference position, 42.8360986356 North Latitude, -124.5633461870 East Longitude, 37.83781 meters elevation,
Date, North (mm), East (mm), Vertical (mm), North Std. Deviation (mm), East Std. Deviation (mm),              Vertical Std. Deviation (mm), Quality,
1997-08-18,0.00, 0.00, 0.00, 2.31, 1.79, 8.09, repro,
1997-08-19,0.40, 1.33, -4.33, 2.43, 1.87, 8.63, repro,
1997-08-20,-0.56, -1.32, -6.03, 2.46, 1.90, 8.79, repro,
1997-08-21,-0.74, -0.04, -0.35, 2.34, 1.84, 8.30, repro,
1997-08-22,0.18, 0.72, -3.59, 2.43, 1.88, 8.74, repro,
1997-08-23,0.39, 0.05, -0.57, 2.40, 1.84, 8.69, repro,
1997-08-24,0.86, -0.03, -2.72, 2.39, 1.88, 8.43, repro,
1997-08-25,-1.17, -0.63, -1.66, 2.48, 1.89, 8.86, repro,
1997-08-26,0.07, -0.05, -8.45, 2.34, 1.80, 8.30, repro,
1997-08-27,-1.52, -1.32, 3.72, 2.36, 1.84, 8.30, repro,
1997-08-28,-0.55, -0.44, -1.03, 2.56, 1.97, 8.91, repro,
1997-08-29,0.05, 0.88, -0.55, 2.34, 1.80, 8.09, repro,
1997-08-30,0.81, -0.43, -4.48, 2.29, 1.79, 8.09, repro,
1997-08-31,-0.65, 0.49, 8.93, 2.42, 1.86, 8.54, repro,
1997-09-01,0.24, 0.88, 8.18, 2.33, 1.83, 8.18, repro,
1997-09-02,0.50, -0.49, -2.47, 2.28, 1.78, 8.03, repro,
1997-09-03,1.46, 1.71, 0.35, 2.41, 1.90, 8.34, repro,
1997-09-04,0.01, 0.76, 4.93, 2.46, 1.94, 8.53, repro,
1997-09-05,0.19, -0.71, -1.53, 2.28, 1.78, 8.04, repro,
1997-09-06,-0.71, -0.27, -1.02, 2.30, 1.80, 8.22, repro,
1997-09-07,0.74, -0.72, 5.26, 2.29, 1.81, 8.19, repro,
1997-09-08,-0.69, -0.58, 7.31, 2.28, 1.79, 8.07, repro,
1997-09-09,1.07, -1.99, 4.78, 2.38, 1.90, 8.67, repro,
1997-09-10,0.94, -0.72, 1.07, 2.30, 1.80, 8.16, repro,
1997-09-11,0.33, 0.80, 4.17, 2.38, 1.83, 8.59, repro,
1997-09-12,0.52, -0.25, 2.29, 2.37, 1.80, 8.29, repro,
1997-09-13,1.07, -1.18, -0.12, 2.29, 1.78, 8.01, repro,
1997-09-14,2.33, 0.77, 1.14, 2.46, 1.96, 8.75, repro,
1997-09-15,1.68, 0.67, -2.22, 2.35, 1.84, 8.22, repro,
1997-09-16,0.60, -0.42, 1.45, 2.47, 1.99, 9.05, repro,
1997-09-17,1.46, -0.33, -2.65, 2.42, 1.96, 8.70, repro,
1997-09-18,0.79, -1.87, 4.29, 2.32, 1.85, 8.32, repro,
1997-09-19,1.38, -0.23, 0.37, 2.41, 1.85, 8.54, repro,
1997-09-20,0.21, -0.69, -5.59, 2.36, 1.88, 8.43, repro,
1997-09-21,0.53, 0.93, -3.25, 2.32, 1.81, 8.16, repro,
1997-09-22,1.61, 0.71, -2.41, 2.34, 1.87, 8.45, repro,
1997-09-23,-2.71, 0.37, -0.82, 2.36, 1.83, 8.40, repro,
1997-09-24,0.81, 1.32, -2.18, 2.31, 1.81, 8.21, repro,
1997-09-25,-0.16, -0.83, 0.54, 2.88, 2.17, 10.07, repro,
1997-09-26,2.62, 0.69, -4.48, 2.39, 1.90, 8.54, repro,
1997-09-27,-0.14, 0.13, -1.99, 2.36, 1.92, 8.72, repro,
1997-09-28,-0.71, 0.32, -2.00, 2.42, 1.89, 8.79, repro,
1997-09-29,2.32, 1.43, 1.10, 2.46, 1.91, 8.71, repro,
1997-09-30,3.09, 0.97, 4.03, 2.38, 1.89, 8.46, repro,
1997-10-01,0.61, 1.06, 6.59, 2.35, 1.86, 8.46, repro,
1997-10-02,2.34, 1.12, 5.09, 2.34, 1.87, 8.49, repro,
1997-10-03,2.15, 0.26, 3.72, 2.34, 1.86, 8.46, repro,
1997-10-04,0.71, 0.91, -4.30, 2.50, 1.95, 8.84, repro,
1997-10-05,0.67, 1.22, -2.45, 2.46, 1.91, 8.73, repro,
1997-10-06,-0.53, -0.69, -1.73, 2.32, 1.80, 8.20, repro,
1997-10-07,1.94, 0.45, -4.87, 2.36, 1.85, 8.53, repro,
1997-10-08,0.68, 1.48, 4.95, 2.38, 1.88, 8.65, repro,
1997-10-09,-1.35, -2.97, 5.15, 2.32, 1.85, 8.44, repro,
1997-10-10,-0.42, -0.90, -5.35, 2.36, 1.89, 8.56, repro,
1997-10-11,-0.18, -0.39, 0.09, 2.37, 1.87, 8.38, repro,
1997-10-12,1.26, 0.28, -6.87, 2.36, 1.84, 8.31, repro,
1997-10-13,-0.40, 0.42, -8.34, 2.46, 1.96, 8.74, repro,
1997-10-14,-3.08, 1.92, 0.48, 2.71, 2.09, 9.42, repro,
1997-10-15,0.13, -0.36, -7.81, 2.59, 1.99, 9.02, repro,
1997-10-16,-0.87, 0.01, -7.39, 2.36, 1.87, 8.69, repro,
1997-10-17,0.42, 1.60, 8.41, 2.81, 2.07, 9.86, repro,
1997-10-18,0.94, -0.41, -2.10, 2.45, 1.87, 8.41, repro,
1997-10-19,2.83, 0.97, -6.15, 2.47, 1.89, 8.49, repro,
1997-10-20,-0.36, 1.53, -5.90, 2.57, 1.97, 9.05, repro,
1997-10-21,-1.39, 0.61, -8.92, 2.41, 1.92, 8.72, repro,
1997-10-23,0.99, -0.35, -4.29, 2.59, 1.94, 8.86, repro,
1997-10-24,1.97, -0.26, -3.32, 2.46, 1.87, 8.51, repro,
1997-10-25,-0.62, 0.77, -5.71, 2.72, 2.06, 9.34, repro,
1997-10-26,0.72, -0.55, -4.93, 2.45, 1.91, 8.59, repro,
1997-10-27,0.67, -0.70, -7.54, 2.52, 1.99, 9.07, repro,
1997-10-28,1.16, -0.26, -18.90, 2.77, 2.13, 9.49, repro,
1997-10-29,2.20, -0.25, -6.30, 2.60, 2.00, 9.23, repro,
1997-10-30,-0.06, -0.86, -4.26, 2.44, 1.97, 8.82, repro,
1997-10-31,0.68, 1.04, 6.51, 2.47, 1.99, 8.93, repro,
1997-11-01,2.49, 1.10, -8.77, 2.49, 1.93, 8.80, repro,
1997-11-02,0.42, 1.22, -0.28, 2.61, 2.07, 9.60, repro,
1997-11-03,1.08, 0.76, 3.03, 2.53, 1.95, 9.10, repro,
1997-11-04,1.29, -0.27, -3.74, 2.55, 2.01, 8.99, repro,
1997-11-05,-0.57, 0.10, -1.70, 2.49, 1.97, 8.75, repro,
1997-11-06,1.32, -0.71, -9.59, 2.53, 1.94, 9.02, repro,
1997-11-08,2.90, 1.44, -2.40, 2.45, 1.94, 8.65, repro,
1997-11-09,1.50, 2.33, -0.37, 2.43, 1.92, 8.69, repro,
1997-11-10,1.91, 1.05, -4.77, 2.47, 2.00, 8.89, repro,
1997-11-11,0.43, 0.75, 7.64, 2.48, 1.99, 9.17, repro,
1997-11-12,0.68, -0.08, -0.16, 2.55, 1.97, 8.94, repro,
1997-11-13,3.16, 1.54, 6.77, 2.45, 1.94, 8.78, repro,
1997-11-14,0.51, -0.62, 0.69, 2.53, 1.95, 9.06, repro,
1997-11-15,0.99, 0.08, -12.24, 2.49, 1.94, 8.79, repro,
1997-11-16,-1.83, 1.17, 3.03, 2.41, 1.89, 8.74, repro,
1997-11-17,4.68, 1.44, 0.99, 2.65, 2.06, 9.42, repro,
1997-11-18,0.52, 2.63, 16.64, 2.47, 1.97, 9.32, repro,
1997-11-19,-1.14, 0.84, 15.57, 2.46, 1.97, 9.05, repro,
1997-11-20,2.43, 1.57, -0.32, 2.71, 2.05, 9.34, repro,
1997-11-21,0.16, 0.09, 6.59, 3.29, 2.49, 11.66, repro,
1997-11-22,-3.47, 2.26, 5.05, 2.66, 2.04, 9.44, repro,
1997-11-23,3.04, -1.25, -1.44, 2.63, 2.01, 9.21, repro,
1997-11-24,-0.68, 0.22, 10.89, 2.61, 1.97, 9.32, repro,
1997-11-25,-2.13, 2.35, 6.02, 2.68, 2.02, 9.43, repro,
1997-11-26,-0.48, -0.35, 1.75, 2.79, 2.05, 9.69, repro,
1997-11-27,-0.80, 0.47, 1.93, 2.55, 2.01, 9.14, repro,
1997-11-28,-0.04, 1.19, 10.50, 2.47, 1.92, 9.08, repro,
1997-11-29,1.44, 2.19, -5.39, 2.57, 2.01, 8.79, repro,
1997-11-30,-2.07, -0.34, -4.95, 2.40, 1.88, 8.42, repro,
1997-12-01,0.09, 3.04, -0.20, 2.53, 1.96, 9.10, repro,
1997-12-02,-0.95, 1.87, 1.66, 2.52, 1.93, 8.91, repro,
1997-12-03,0.22, 0.64, 0.66, 2.48, 1.98, 9.27, repro,
1997-12-04,0.61, 1.67, -5.81, 2.42, 1.89, 8.83, repro,
1997-12-05,-0.33, 1.07, -6.54, 2.63, 1.95, 9.23, repro,
1997-12-06,-1.02, 0.53, -9.28, 2.75, 2.11, 9.53, repro,
1997-12-07,-0.40, -0.46, -3.11, 2.34, 1.83, 8.30, repro,
1997-12-08,-0.91, 0.56, 4.03, 2.72, 2.05, 9.44, repro,
1997-12-09,0.57, 1.72, -6.46, 2.32, 1.82, 8.22, repro,
1997-12-10,-0.96, 1.72, -14.75, 2.67, 2.03, 9.39, repro,
1997-12-11,-0.14, 2.85, -13.31, 2.43, 1.86, 8.63, repro,
1997-12-12,-0.32, 1.94, -5.33, 2.41, 1.84, 8.61, repro,
1997-12-13,-0.20, 1.41, -0.39, 2.39, 1.81, 8.59, repro,
1997-12-14,-0.63, 1.78, 13.79, 2.46, 1.92, 9.13, repro,
1997-12-15,-1.49, 0.31, -1.06, 2.67, 2.00, 9.58, repro,
1997-12-16,-0.53, 0.53, -4.11, 2.48, 1.87, 8.91, repro,
1997-12-17,1.23, 1.35, 5.17, 2.49, 1.87, 8.95, repro,
1997-12-18,1.04, 2.64, -2.97, 2.48, 1.92, 8.55, repro,
1997-12-19,0.65, 2.50, -3.48, 2.35, 1.87, 8.22, repro,
1997-12-20,-0.15, 1.84, -0.26, 2.38, 1.88, 8.29, repro,
1997-12-22,-0.83, 1.25, -13.62, 2.30, 1.78, 8.06, repro,
1997-12-23,-2.26, -0.52, -2.72, 2.48, 1.93, 8.80, repro,
1997-12-24,-0.41, 0.38, -4.27, 2.33, 1.85, 8.37, repro,
1997-12-25,-0.76, 2.19, -7.18, 2.57, 1.94, 8.73, repro,
1997-12-26,2.51, 2.81, -12.28, 2.46, 1.87, 8.37, repro,
1997-12-27,0.44, 2.04, -13.08, 2.37, 1.84, 8.32, repro,
1997-12-28,0.11, 2.62, -11.02, 2.44, 1.93, 8.58, repro,
1997-12-29,-0.82, 1.51, -10.54, 2.42, 1.95, 8.72, repro,
1997-12-30,-1.41, 2.04, -7.95, 2.57, 2.09, 9.33, repro,
1997-12-31,0.91, 0.95, -12.08, 2.39, 1.87, 8.42, repro,
1998-01-01,1.01, 1.59, -10.82, 2.53, 1.97, 8.80, repro,
1998-01-02,2.42, 3.03, -1.84, 2.54, 1.99, 9.07, repro,
1998-01-03,3.31, 0.06, -7.67, 2.38, 1.88, 8.59, repro,
1998-01-04,-0.16, 0.20, -10.48, 2.34, 1.84, 8.29, repro,
1998-01-05,-0.38, -0.53, -13.83, 2.40, 1.96, 8.66, repro,
1998-01-06,1.90, 1.10, -12.86, 2.45, 1.95, 8.77, repro,
1998-01-07,0.88, 1.07, -15.14, 2.52, 2.04, 9.02, repro,
1998-01-08,0.55, 2.36, -18.05, 2.56, 2.06, 9.33, repro,
1998-01-09,1.39, 2.19, -13.22, 2.43, 1.94, 8.86, repro,
1998-01-10,0.52, 1.81, -2.50, 2.39, 1.89, 8.40, repro,
1998-01-11,0.05, 2.39, -6.50, 2.42, 1.92, 8.57, repro,
1998-01-12,2.41, 1.65, -16.83, 2.52, 1.99, 9.05, repro,
1998-01-13,2.35, 1.48, -14.37, 2.47, 2.05, 9.06, repro,
1998-01-14,1.54, 1.56, -10.33, 2.49, 1.95, 8.79, repro,
1998-01-15,-2.15, 0.77, -0.55, 2.41, 1.96, 8.75, repro,
1998-01-16,-0.11, 0.54, -5.01, 2.54, 2.09, 9.21, repro,
1998-01-17,-0.75, 2.30, -0.20, 2.39, 1.93, 8.65, repro,
1998-01-18,1.95, -0.03, -7.31, 2.43, 1.88, 8.60, repro,
1998-01-19,0.43, 0.92, -15.85, 2.33, 1.83, 8.19, repro,
1998-01-20,1.12, 1.40, -12.10, 2.31, 1.81, 8.12, repro,
1998-01-21,-0.37, 1.86, -10.76, 2.42, 1.90, 8.52, repro,
1998-01-22,0.62, 1.10, -8.60, 2.40, 1.89, 8.47, repro,
1998-01-23,2.02, -1.69, -15.35, 2.46, 1.94, 8.85, repro,
1998-01-24,-0.85, 3.16, -10.27, 2.40, 1.85, 8.33, repro,
1998-01-25,0.26, 2.12, 1.08, 2.31, 1.84, 8.13, repro,
1998-01-26,-1.43, 3.14, -16.26, 2.32, 1.83, 8.19, repro,
1998-01-27,-0.96, 2.36, -11.12, 2.36, 1.86, 8.28, repro,
1998-01-28,1.27, 2.51, -4.82, 2.44, 1.90, 8.61, repro,
1998-01-29,-0.29, 3.10, -9.21, 2.38, 1.83, 8.22, repro,
1998-01-30,0.67, 2.96, -8.79, 2.35, 1.84, 8.22, repro,
1998-01-31,0.42, 2.01, -7.81, 2.30, 1.82, 7.98, repro,
1998-02-01,-0.89, 1.00, -9.41, 2.32, 1.85, 8.18, repro,
1998-02-02,-1.42, 1.16, -12.88, 2.27, 1.81, 7.97, repro,
1998-02-03,-0.82, 1.58, -5.38, 2.23, 1.75, 7.79, repro,
1998-02-04,-1.44, 0.55, -7.97, 2.32, 1.79, 8.02, repro,
1998-02-05,-0.28, 1.58, -4.87, 2.41, 1.87, 8.30, repro,
1998-02-06,-0.65, 0.31, -5.38, 2.27, 1.79, 8.00, repro,
1998-02-07,-0.48, 1.25, -14.18, 2.29, 1.78, 7.93, repro,
1998-02-08,-2.49, 0.55, -2.63, 2.32, 1.85, 8.34, repro,
1998-02-09,-1.17, 2.17, -5.66, 2.37, 1.85, 8.35, repro,
1998-02-10,-1.29, 1.00, -4.96, 2.32, 1.81, 8.17, repro,
1998-02-11,-0.83, 0.80, -14.71, 2.33, 1.78, 8.25, repro,
1998-02-12,-1.62, 1.34, -3.90, 2.32, 1.79, 8.14, repro,
1998-02-13,-1.34, 1.48, -14.64, 2.28, 1.80, 7.94, repro,
1998-02-14,0.66, 0.92, -8.32, 2.50, 1.92, 8.78, repro,
1998-02-15,0.44, 0.63, -5.98, 2.40, 1.90, 8.53, repro,
1998-02-16,-0.54, 2.50, -3.85, 2.31, 1.81, 8.05, repro,
1998-02-17,-1.00, 3.26, -1.05, 2.54, 1.91, 8.71, repro,
1998-02-18,-0.65, 1.77, -12.47, 2.53, 2.01, 8.99, repro,
1998-02-19,-0.10, 1.98, -13.25, 2.35, 1.90, 8.53, repro,
1998-02-20,0.64, 3.82, -12.58, 2.43, 1.92, 8.61, repro,
1998-02-21,-1.07, 3.01, -0.50, 2.34, 1.89, 8.32, repro,
1998-02-22,-0.43, 3.69, -13.04, 2.37, 1.90, 8.42, repro,
1998-02-23,-1.47, 1.49, -9.12, 2.29, 1.81, 8.04, repro,
1998-02-24,-1.74, 0.76, -3.76, 2.30, 1.82, 8.11, repro,
1998-02-25,-0.89, 1.15, -7.05, 2.40, 1.84, 8.43, repro,
1998-02-26,-0.90, 2.72, -6.15, 2.35, 1.92, 8.50, repro,
1998-02-27,0.01, 3.28, -13.44, 2.25, 1.82, 8.10, repro,
1998-02-28,0.08, 3.55, -8.06, 2.30, 1.84, 8.31, repro,
1998-03-01,-0.83, 3.10, -8.35, 2.40, 1.91, 8.46, repro,
1998-03-02,-0.20, 3.22, -11.97, 2.26, 1.79, 7.95, repro,
1998-03-03,-0.69, 2.45, -15.85, 2.37, 1.83, 8.23, repro,
1998-03-04,-0.47, 2.91, -12.66, 2.23, 1.73, 7.81, repro,
1998-03-05,-1.45, 1.55, -7.91, 2.17, 1.74, 7.73, repro,
1998-03-06,-1.56, 3.26, -8.57, 2.21, 1.75, 7.77, repro,
1998-03-07,-0.50, 2.18, -11.96, 2.24, 1.81, 8.10, repro,
1998-03-08,-0.85, 2.29, -15.41, 2.31, 1.86, 8.27, repro,
1998-03-09,-0.65, 2.66, -11.41, 2.25, 1.80, 7.98, repro,
1998-03-10,-1.30, 3.58, -16.18, 2.33, 1.85, 8.18, repro,
1998-03-11,-1.75, 3.36, -5.96, 2.29, 1.87, 8.14, repro,
1998-03-12,0.29, 2.00, -4.24, 2.27, 1.81, 8.01, repro,
1998-03-13,-0.60, 3.49, -9.62, 2.30, 1.82, 8.05, repro,
1998-03-14,-0.77, 3.75, -13.71, 2.33, 1.85, 8.17, repro,
1998-03-15,-0.69, 3.66, -11.42, 2.34, 1.84, 8.11, repro,
1998-03-16,-0.39, 3.18, -17.84, 2.27, 1.81, 7.99, repro,
1998-03-17,-0.65, 2.99, -10.60, 2.21, 1.80, 7.98, repro,
1998-03-18,-1.72, 2.08, -4.03, 2.24, 1.77, 7.90, repro,
1998-03-19,-0.34, 2.74, -6.37, 2.28, 1.81, 7.96, repro,
1998-03-20,-1.74, 3.33, -3.40, 2.32, 1.86, 8.30, repro,
1998-03-21,1.73, 1.67, -10.96, 2.22, 1.74, 7.83, repro,
1998-03-22,1.67, 2.70, -9.24, 2.22, 1.78, 7.90, repro,
1998-03-23,0.23, 1.50, -7.71, 2.36, 1.86, 8.19, repro,
1998-03-24,0.12, 1.36, -7.43, 2.30, 1.86, 8.21, repro,
1998-03-25,0.16, 2.09, -10.70, 2.26, 1.82, 8.11, repro,
1998-03-26,-0.54, 2.00, -2.52, 2.29, 1.79, 7.96, repro,
1998-03-27,0.22, 0.25, -2.81, 2.28, 1.79, 7.98, repro,
1998-03-28,-1.71, 2.99, -2.72, 2.28, 1.79, 7.93, repro,
1998-03-29,-0.40, 3.10, -4.95, 2.25, 1.79, 7.92, repro,
1998-03-30,-0.18, 2.42, -4.12, 2.29, 1.82, 8.09, repro,
1998-03-31,-0.93, 1.23, -5.56, 2.74, 2.17, 9.57, repro,
1998-04-01,-0.75, 0.72, -7.96, 2.35, 1.85, 8.17, repro,
1998-04-02,-0.57, 3.52, -3.53, 2.33, 1.90, 8.25, repro,
1998-04-03,0.82, 2.81, -12.44, 2.59, 2.05, 9.03, repro,
1998-04-04,-1.10, 2.32, -3.70, 2.33, 1.88, 8.23, repro,
1998-04-05,-2.16, 0.93, -7.03, 2.29, 1.80, 8.01, repro,
1998-04-06,-0.40, 2.02, -4.42, 2.47, 1.96, 8.57, repro,
1998-04-07,-0.82, 1.66, -14.58, 2.38, 1.95, 8.44, repro,
1998-04-08,-0.85, 2.17, -9.83, 2.44, 1.95, 8.65, repro,
1998-04-09,-0.25, 1.68, -6.71, 2.29, 1.83, 8.02, repro,
1998-04-10,-0.18, 1.59, -11.21, 2.36, 1.86, 8.21, repro,
1998-04-11,0.99, 1.04, -10.88, 2.41, 1.95, 8.59, repro,
1998-04-12,-0.70, 1.81, -10.46, 2.32, 1.84, 8.13, repro,
1998-04-13,0.26, 1.84, -13.82, 2.27, 1.79, 7.93, repro,
1998-04-14,0.82, 1.47, -15.49, 2.26, 1.79, 8.13, repro,
1998-04-15,-0.32, 1.41, -14.87, 2.39, 1.90, 8.35, repro,
1998-04-16,-0.08, 1.71, -8.33, 2.39, 1.91, 8.39, repro,
1998-04-17,-0.81, 2.70, -9.33, 2.50, 2.00, 8.54, repro,
1998-04-18,0.23, 1.91, -10.12, 2.22, 1.76, 7.92, repro,
1998-04-19,0.49, 2.54, -14.58, 2.20, 1.74, 7.76, repro,
1998-04-20,0.55, 2.69, -6.72, 2.23, 1.75, 7.91, repro,
1998-04-21,0.90, 2.63, -7.45, 2.29, 1.78, 8.01, repro,
1998-04-22,-1.75, 1.43, -3.04, 2.34, 1.82, 8.07, repro,
1998-04-23,2.15, 2.66, -1.65, 2.22, 1.74, 7.87, repro,
1998-04-24,0.62, 1.77, -11.51, 2.20, 1.75, 7.84, repro,
1998-04-25,-0.48, 2.46, -2.53, 2.23, 1.75, 7.92, repro,
1998-04-26,-0.08, 1.96, -6.60, 2.22, 1.75, 7.87, repro,
1998-04-27,-2.34, 0.66, -3.50, 2.17, 1.72, 7.73, repro,
1998-04-28,-2.05, 1.50, -1.56, 2.18, 1.74, 7.79, repro,
1998-04-29,-0.40, 1.58, -2.37, 2.31, 1.80, 8.04, repro,
1998-04-30,0.06, 1.83, 2.31, 2.20, 1.73, 7.80, repro,
1998-05-01,-0.03, 1.90, -2.78, 2.22, 1.74, 7.93, repro,
1998-05-02,-1.01, 2.05, 4.11, 2.24, 1.75, 7.91, repro,
1998-05-03,-0.90, 2.77, 6.16, 2.23, 1.74, 7.85, repro,
1998-05-04,-1.35, 0.57, -0.65, 2.28, 1.76, 8.15, repro,
1998-05-05,0.10, 1.26, 1.56, 2.24, 1.74, 7.85, repro,
1998-05-06,-0.76, 1.34, 2.49, 2.31, 1.79, 8.16, repro,
1998-05-07,0.52, 1.54, -1.83, 2.23, 1.74, 7.92, repro,
1998-05-08,-1.08, 1.27, 8.58, 2.24, 1.75, 7.96, repro,
1998-05-09,0.46, 0.59, 0.35, 2.17, 1.71, 7.72, repro,
1998-05-10,0.01, 1.11, -2.16, 2.21, 1.73, 7.83, repro,
1998-05-11,0.33, 1.37, 1.06, 2.22, 1.74, 7.88, repro,
1998-05-12,-0.58, 0.56, 4.07, 2.19, 1.72, 7.83, repro,
1998-05-13,-0.01, 0.88, 2.71, 2.16, 1.72, 7.80, repro,
1998-05-14,0.74, 1.00, 3.55, 2.21, 1.75, 7.91, repro,
1998-05-15,-0.97, 1.30, 0.09, 2.23, 1.75, 7.92, repro,
1998-05-16,-0.73, 1.54, 1.55, 2.23, 1.75, 7.93, repro,
1998-05-17,0.02, 1.03, -3.70, 2.24, 1.75, 7.91, repro,
1998-05-18,-0.01, 2.69, -4.29, 2.26, 1.75, 8.03, repro,
1998-05-19,0.84, 2.85, -1.75, 2.20, 1.75, 7.88, repro,
1998-05-20,-0.11, 1.09, -2.20, 2.19, 1.75, 7.84, repro,
1998-05-21,-0.09, 1.91, -3.83, 2.20, 1.73, 7.85, repro,
1998-05-22,-0.36, 2.11, 0.21, 2.28, 1.76, 8.04, repro,
1998-05-23,0.57, 2.14, -7.12, 2.28, 1.81, 8.15, repro,
1998-05-24,-0.02, 1.19, -5.75, 2.22, 1.75, 7.91, repro,
1998-05-25,1.40, 2.72, -6.04, 2.22, 1.74, 7.86, repro,
1998-05-26,-1.74, 1.70, -1.58, 2.35, 1.86, 8.30, repro,
1998-05-27,-0.29, 0.44, -2.31, 2.31, 1.78, 8.08, repro,
1998-05-28,-0.09, 1.44, 1.05, 2.26, 1.76, 7.94, repro,
1998-05-29,-0.56, 2.32, -7.32, 2.30, 1.85, 8.19, repro,
1998-05-30,0.40, 2.89, -6.25, 2.30, 1.84, 8.11, repro,
1998-05-31,-0.38, 2.42, -7.72, 2.20, 1.76, 7.81, repro,
1998-06-01,-1.27, 1.77, -1.21, 2.22, 1.75, 7.79, repro,
1998-06-02,-1.12, 2.29, -0.63, 2.25, 1.78, 7.95, repro,
1998-06-03,0.08, 2.40, -4.77, 2.21, 1.77, 7.84, repro,
1998-06-04,-1.26, 1.39, -1.16, 2.20, 1.75, 7.83, repro,
1998-06-05,0.36, 2.03, -2.37, 2.20, 1.82, 7.94, repro,
1998-06-06,-1.65, 1.52, -9.64, 2.20, 1.74, 7.79, repro,
1998-06-07,-1.39, 1.77, -4.51, 2.27, 1.80, 8.00, repro,
1998-06-08,-0.22, 2.48, 3.30, 2.22, 1.74, 7.79, repro,
1998-06-09,-2.62, 1.61, 2.52, 2.22, 1.76, 7.88, repro,
1998-06-10,-0.09, 3.15, -3.41, 2.27, 1.83, 8.03, repro,
1998-06-11,-0.95, 2.70, -2.51, 2.18, 1.75, 7.77, repro,
1998-06-12,-1.87, 1.25, 2.76, 2.21, 1.76, 7.74, repro,
1998-06-13,-3.45, 1.14, 2.41, 2.20, 1.75, 7.81, repro,
1998-06-14,1.40, 0.81, 2.94, 2.20, 1.75, 7.81, repro,
1998-06-15,-0.09, 2.84, -5.37, 2.24, 1.81, 7.98, repro,
1998-06-16,-0.88, 1.54, 4.84, 2.28, 1.84, 8.25, repro,
1998-06-17,-0.71, 1.35, 2.84, 2.18, 1.74, 7.68, repro,
1998-06-18,-2.00, 1.60, 4.15, 2.21, 1.74, 7.76, repro,
1998-06-19,-1.90, 2.19, -1.86, 2.22, 1.75, 7.84, repro,
1998-06-20,-0.28, 0.51, -3.16, 2.25, 1.81, 8.01, repro,
1998-06-21,-2.33, 1.05, 2.57, 2.21, 1.74, 7.74, repro,
1998-06-22,-1.78, 1.80, -1.22, 2.28, 1.78, 8.12, repro,
1998-06-23,-2.69, 1.34, 2.66, 2.30, 1.80, 8.19, repro,
1998-06-24,-1.89, 1.50, 2.68, 2.28, 1.79, 7.99, repro,
1998-06-25,-0.92, 0.69, 1.58, 2.36, 1.84, 8.26, repro,
1998-06-26,-1.13, 1.02, 6.15, 2.25, 1.80, 7.98, repro,
1998-06-27,-1.71, 1.19, -0.84, 2.27, 1.85, 8.17, repro,
1998-06-28,-1.92, -0.01, 2.25, 2.20, 1.77, 7.82, repro,
1998-06-29,-0.16, 0.30, -6.21, 2.25, 1.80, 7.91, repro,
1998-06-30,-1.52, 1.25, -4.09, 2.24, 1.79, 7.96, repro,
1998-07-01,0.22, 1.40, -1.76, 2.27, 1.81, 8.22, repro,
1998-07-02,-0.94, 0.78, -2.80, 2.20, 1.76, 7.84, repro,
1998-07-03,-1.08, 0.57, -0.86, 2.23, 1.76, 7.90, repro,
1998-07-04,-1.23, 0.59, 2.40, 2.19, 1.76, 7.80, repro,
1998-07-05,-4.26, 1.22, 1.12, 2.21, 1.75, 7.78, repro,
1998-07-06,-1.84, 0.93, -0.83, 2.24, 1.76, 8.01, repro,
1998-07-07,-2.73, 2.33, -3.03, 2.26, 1.77, 7.99, repro,
1998-07-08,-3.86, 0.33, -2.60, 2.28, 1.79, 8.08, repro,
1998-07-09,-1.12, 0.69, -1.43, 2.30, 1.87, 8.26, repro,
1998-07-10,-1.80, 1.34, -2.29, 2.26, 1.80, 8.07, repro,
1998-07-11,-0.68, 1.41, -1.52, 2.19, 1.75, 7.75, repro,
1998-07-12,-0.63, 2.84, -4.33, 2.23, 1.76, 7.97, repro,
1998-07-13,-1.69, 1.90, -1.33, 2.18, 1.74, 7.78, repro,
1998-07-14,-1.79, 1.04, 1.03, 2.34, 1.81, 8.31, repro,
1998-07-15,-2.04, 2.25, 3.20, 2.28, 1.79, 8.11, repro,
1998-07-16,-3.33, 1.39, 1.34, 2.21, 1.76, 7.81, repro,
1998-07-17,-2.54, 1.61, 0.67, 2.20, 1.75, 7.83, repro,
1998-07-18,-1.51, 1.49, -2.94, 2.21, 1.77, 7.87, repro,
1998-07-19,-1.73, 0.71, 6.27, 2.18, 1.73, 7.73, repro,
1998-07-20,-2.79, 0.08, 9.97, 2.25, 1.77, 7.91, repro,
1998-07-21,-2.28, 0.37, -1.43, 2.28, 1.79, 8.08, repro,
1998-07-22,-2.69, 0.53, 0.08, 2.34, 1.81, 8.18, repro,
1998-07-23,-1.25, 0.92, 2.98, 2.46, 1.94, 8.72, repro,
1998-07-24,-1.66, 3.03, 9.65, 2.26, 1.79, 8.08, repro,
1998-07-25,-2.29, 0.26, 0.65, 2.26, 1.77, 8.10, repro,
1998-07-26,1.53, 1.99, -2.88, 2.18, 1.74, 7.75, repro,
1998-07-27,-0.97, 2.53, -11.91, 2.33, 1.78, 8.37, repro,
1998-07-28,-1.58, 1.75, 2.14, 2.24, 1.79, 8.04, repro,
1998-07-29,1.24, 0.41, -7.39, 2.23, 1.80, 7.96, repro,
1998-07-30,-0.84, 0.73, 5.80, 2.26, 1.78, 8.07, repro,
1998-07-31,-0.02, 2.53, 6.05, 2.32, 1.85, 8.43, repro,
1998-08-01,-2.39, 0.51, 1.06, 2.36, 1.85, 8.45, repro,
1998-08-02,-3.80, 1.35, -7.54, 2.21, 1.74, 7.84, repro,
1998-08-03,-1.75, 1.19, -0.23, 2.22, 1.78, 7.98, repro,
1998-08-04,-1.42, 0.15, -1.52, 2.23, 1.80, 7.94, repro,
1998-08-05,0.26, 1.62, -1.15, 2.23, 1.76, 8.05, repro,
1998-08-06,-1.07, 0.56, 3.64, 2.19, 1.74, 7.69, repro,
1998-08-07,-0.28, -0.23, 0.37, 2.21, 1.74, 7.84, repro,
1998-08-08,-1.21, -0.55, 4.78, 2.21, 1.75, 7.76, repro,
1998-08-09,-2.22, 0.63, 3.77, 2.25, 1.80, 8.13, repro,
1998-08-10,-1.07, 0.36, 10.25, 2.25, 1.80, 8.08, repro,
1998-08-11,0.15, -0.42, 4.78, 2.20, 1.76, 7.83, repro,
1998-08-12,1.01, -1.03, 10.97, 2.19, 1.74, 7.80, repro,
1998-08-13,-0.27, 0.16, -9.67, 2.16, 1.72, 7.64, repro,
1998-08-14,-0.16, -1.82, -1.98, 2.20, 1.77, 7.91, repro,
1998-08-15,-0.23, 0.65, 5.66, 2.17, 1.75, 7.76, repro,
1998-08-16,-1.33, 0.61, 0.10, 2.28, 1.86, 8.21, repro,
1998-08-17,0.17, 1.02, 0.41, 2.26, 1.79, 8.00, repro,
1998-08-18,0.73, 1.18, 5.98, 2.20, 1.76, 7.82, repro,
1998-08-19,0.60, 0.42, 7.92, 2.16, 1.73, 7.66, repro,
1998-08-20,-0.66, 1.35, 0.42, 2.14, 1.72, 7.55, repro,
1998-08-21,0.04, 1.49, -3.76, 2.19, 1.74, 7.77, repro,
1998-08-22,-0.03, 1.79, -5.92, 2.23, 1.81, 8.02, repro,
1998-08-23,-0.88, 1.25, 6.75, 2.18, 1.75, 7.73, repro,
1998-08-24,-2.52, 0.91, 3.51, 2.21, 1.76, 7.79, repro,
1998-08-25,-3.52, -0.03, -2.34, 2.21, 1.78, 7.83, repro,
1998-08-26,-0.15, -0.08, 1.75, 2.19, 1.75, 7.75, repro,
1998-08-27,-3.22, 0.81, 4.21, 2.22, 1.77, 7.86, repro,
1998-08-28,-0.91, 0.98, 2.70, 2.17, 1.73, 7.67, repro,
1998-08-29,-2.07, 0.94, 1.11, 2.21, 1.77, 7.83, repro,
1998-08-30,-2.35, 0.42, 2.99, 2.20, 1.75, 7.72, repro,
1998-08-31,-2.28, -0.38, 7.24, 2.19, 1.76, 7.77, repro,
1998-09-01,-3.26, 0.15, 6.44, 2.26, 1.81, 8.11, repro,
1998-09-02,-1.52, -0.46, 9.98, 2.20, 1.75, 7.77, repro,
1998-09-03,-1.22, -0.39, 8.76, 2.18, 1.75, 7.77, repro,
1998-09-04,-0.23, -0.45, -0.80, 2.21, 1.77, 7.85, repro,
1998-09-05,-1.17, -0.09, -1.44, 2.16, 1.73, 7.69, repro,
1998-09-06,-0.89, 0.55, 0.94, 2.20, 1.75, 7.79, repro,
1998-09-07,-2.05, 1.69, 4.53, 2.24, 1.81, 8.04, repro,
1998-09-08,-1.63, 1.39, 12.85, 2.26, 1.78, 8.01, repro,
1998-09-09,-0.34, -1.14, 1.67, 2.23, 1.76, 7.91, repro,
1998-09-10,-1.22, 1.38, 12.42, 2.20, 1.76, 7.81, repro,
1998-09-11,-2.29, -0.03, 2.33, 2.26, 1.78, 7.87, repro,
1998-09-12,-2.07, 0.51, 0.33, 2.16, 1.74, 7.76, repro,
1998-09-13,-0.09, 0.53, -1.25, 2.16, 1.72, 7.70, repro,
1998-09-14,-2.40, -0.87, 15.11, 2.32, 1.85, 8.27, repro,
1998-09-15,-2.30, 0.57, -0.01, 2.25, 1.81, 7.90, repro,
1998-09-16,0.00, 0.54, 10.40, 2.25, 1.81, 7.94, repro,
1998-09-17,-0.96, -0.56, -5.95, 2.30, 1.83, 8.00, repro,
1998-09-18,1.91, 0.00, -4.27, 2.36, 1.89, 8.28, repro,
1998-09-19,0.39, 1.73, -2.83, 2.26, 1.80, 7.93, repro,
1998-09-20,-1.88, 0.16, 12.20, 2.29, 1.83, 8.08, repro,
1998-09-21,-1.23, 0.42, 4.29, 2.33, 1.87, 8.23, repro,
1998-09-22,-0.93, -0.53, -4.48, 2.32, 1.86, 8.39, repro,
1998-09-23,-0.38, 2.55, -7.44, 2.59, 1.99, 8.88, repro,
1998-09-24,-1.77, -0.28, 0.69, 2.45, 1.89, 8.37, repro,
1998-09-25,0.70, 0.07, 1.33, 2.40, 1.85, 8.53, repro,
1998-09-26,-1.10, 0.35, -0.74, 2.46, 1.92, 8.45, repro,
1998-09-27,-0.73, -0.26, -3.21, 2.33, 1.86, 8.17, repro,
1998-09-28,-1.39, 1.53, 1.18, 2.43, 1.93, 8.35, repro,
1998-09-29,-2.33, -1.92, -2.69, 2.35, 1.90, 8.27, repro,
1998-09-30,-0.49, -0.39, 2.46, 2.27, 1.79, 7.89, repro,
1998-10-01,-0.69, -0.41, 3.59, 2.31, 1.88, 8.18, repro,
1998-10-02,0.40, 0.47, 0.79, 2.25, 1.81, 7.95, repro,
1998-10-03,-0.37, 0.60, -6.84, 2.74, 2.29, 9.66, repro,
1998-10-04,-0.52, 1.44, -10.59, 2.47, 1.95, 8.69, repro,
1998-10-05,-1.68, 0.35, 4.72, 2.28, 1.84, 8.03, repro,
1998-10-06,-2.17, 0.77, 2.73, 2.56, 2.02, 8.77, repro,
1998-10-07,-2.32, -0.16, 12.06, 2.49, 1.97, 8.57, repro,
1998-10-08,-1.68, 0.45, -1.95, 2.43, 1.94, 8.41, repro,
1998-10-09,2.60, 1.83, -12.47, 2.52, 2.07, 8.85, repro,
1998-10-10,1.70, 1.20, -3.57, 2.37, 1.97, 8.40, repro,
1998-10-11,1.29, 0.14, -4.04, 2.39, 1.92, 8.36, repro,
1998-10-12,1.61, 1.48, 3.51, 2.49, 2.01, 8.55, repro,
1998-10-13,-0.57, -0.47, 3.98, 2.47, 1.97, 8.58, repro,
1998-10-14,1.16, 1.03, -4.37, 2.43, 1.92, 8.44, repro,
1998-10-15,-0.24, 1.92, 1.62, 2.36, 1.84, 8.10, repro,
1998-10-16,-0.06, 1.21, -6.96, 2.36, 1.90, 8.26, repro,
1998-10-17,0.42, 0.66, -6.97, 2.52, 1.99, 8.79, repro,